SCP
-0 -0 -0 -0 0 -0 -0 0 0 0 0 0 0 0 0 0 0 0 0 0 0 0
-0 -0 -0 -0 0 0 -0 0 0 0 0 0 0 0 0 0 0 0 0 0 0 0
0 0 -0 -0 -0 -0 0 -0 0 0 0 0 0 0 0 0 0 0 0 0 0 0
0 0 -0 -0 -0 -0 0 -0 0 0 0 0 0 0 0 0 0 0 0 0 0 0
-0 0 -0 -0 -0 -0 -0 -0 -0 0 0 0 0 0 0 0 0 0 0 0 0 0
0 0 -0 -0 -0 -0 -0 -0 0 0 0 0 0 0 0 0 0 0 0 0 0 0
-0 0 -0 0 -0 0 -0 -0 0 0 0 0 0 0 0 0 0 0 0 0 0 0
-0 -0 -0 0 -0 -0 -0 0 0 0 0 0 0 0 0 0 0 0 0 0 0 0
-0 -0 -0 -0 -0 -0 0 0 0 0 0 0 0 0 0 0 0 0 0 0 0 0
0 -0 -0 -0 -0 -0 0 0 0 0 0 0 0 0 0 0 0 0 0 0 0 0
0 0 -0 0 0 0 0 0 0 0 0 0 0 0 0 0 0 0 0 0 0 0
0 0 0 0 0 0 0 0 0 0 0 0 0 0 0 0 0 0 0 0 0 0
0 0 0 -0 -0 0 0 0 0 0 0 0 0 0 0 0 0 0 0 0 0 0
0 0 0 0 0 0 0 0 0 0 0 0 0 0 0 0 0 0 0 0 0 0
Wind_Speed_500mb
67 76 88 64 52 62 85 89 107 113 121 114 111 112 113 121 112 118 113 109 109 114
69 68 87 73 65 62 61 81 113 121 115 121 114 115 117 124 117 104 94 97 109 109
80 71 77 80 75 70 62 63 57 129 111 130 121 119 123 118 118 122 102 116 105 102
86 77 84 84 73 74 68 58 87 110 122 126 129 123 123 124 123 119 114 106 108 103
88 78 72 73 74 75 79 69 92 59 126 137 141 133 127 129 126 122 126 118 104 100
64 63 67 72 73 81 81 71 61 64 135 137 143 141 132 137 127 126 120 115 113 100
89 75 80 79 75 84 83 85 62 68 115 133 139 139 135 134 135 122 123 121 126 115
96 91 77 66 68 84 83 88 62 65 95 142 131 126 134 135 127 131 130 124 124 116
96 98 95 91 96 94 85 86 61 64 87 133 129 120 109 132 132 126 127 126 120 119
84 81 81 81 70 74 81 76 54 70 84 125 121 121 107 119 132 125 129 123 123 120
77 75 71 65 51 66 73 63 57 58 90 119 122 115 107 106 105 124 124 123 120 119
70 75 65 71 57 53 60 54 57 52 84 114 115 105 107 98 102 105 111 115 120 119
77 68 70 69 68 64 55 54 59 48 83 107 90 90 91 97 104 105 108 108 121 135
57 72 56 61 65 65 58 54 56 49 78 96 99 87 92 88 103 109 108 102 113 114
Wind_Direction_500mb
299 307 319 293 288 290 270 234 231 222 217 215 212 213 217 208 209 202 207 208 213 211
291 295 310 296 302 292 279 274 219 223 218 213 211 210 210 209 204 200 201 211 217 218
290 288 301 307 303 295 269 269 282 222 215 216 211 210 210 207 200 197 197 214 215 217
284 280 292 300 297 301 295 290 254 213 212 217 211 210 211 208 205 201 206 214 214 212
282 277 280 288 295 302 294 274 233 264 219 206 212 210 211 210 208 207 208 212 213 214
290 285 283 287 287 290 304 286 264 286 202 207 211 212 210 212 211 206 213 213 211 212
285 290 292 287 281 285 295 299 271 253 208 215 212 212 211 211 211 210 207 212 213 214
287 280 268 273 283 281 289 296 284 244 219 208 210 210 216 213 212 210 211 215 214 213
290 282 271 272 272 279 284 288 285 238 221 208 208 211 216 218 215 211 212 216 215 214
290 284 282 266 270 270 277 278 280 235 220 208 213 212 212 213 222 217 214 217 216 214
292 286 282 258 263 264 272 271 277 236 215 206 212 209 208 214 219 225 219 221 220 218
296 286 279 260 258 265 273 268 280 229 219 209 210 209 211 215 217 223 227 222 222 223
294 287 273 257 263 259 271 268 282 229 224 213 216 209 214 215 218 221 227 224 224 226
298 286 271 257 253 257 261 265 276 233 225 218 225 216 216 218 220 223 223 229 224 221
Wind_Speed_850mb
67 76 88 64 52 62 85 89 107 113 121 114 111 112 113 121 112 118 113 109 109 114
69 68 87 73 65 62 61 81 113 121 115 121 114 115 117 124 117 104 94 97 109 109
80 71 77 80 75 70 62 63 57 129 111 130 121 119 123 118 118 122 102 116 105 102
86 77 84 84 73 74 68 58 87 110 122 126 129 123 123 124 123 119 114 106 108 103
88 78 72 73 74 75 79 69 92 59 126 137 141 133 127 129 126 122 126 118 104 100
64 63 67 72 73 81 81 71 61 64 135 137 143 141 132 137 127 126 120 115 113 100
89 75 80 79 75 84 83 85 62 68 115 133 139 139 135 134 135 122 123 121 126 115
96 91 77 66 68 84 83 88 62 65 95 142 131 126 134 135 127 131 130 124 124 116
96 98 95 91 96 94 85 86 61 64 87 133 129 120 109 132 132 126 127 126 120 119
84 81 81 81 70 74 81 76 54 70 84 125 121 121 107 119 132 125 129 123 123 120
77 75 71 65 51 66 73 63 57 58 90 119 122 115 107 106 105 124 124 123 120 119
70 75 65 71 57 53 60 54 57 52 84 114 115 105 107 98 102 105 111 115 120 119
77 68 70 69 68 64 55 54 59 48 83 107 90 90 91 97 104 105 108 108 121 135
57 72 56 61 65 65 58 54 56 49 78 96 99 87 92 88 103 109 108 102 113 114
Wind_Direction_850mb
299 307 319 293 288 290 270 234 231 222 217 215 212 213 217 208 209 202 207 208 213 211
291 295 310 296 302 292 279 274 219 223 218 213 211 210 210 209 204 200 201 211 217 218
290 288 301 307 303 295 269 269 282 222 215 216 211 210 210 207 200 197 197 214 215 217
284 280 292 300 297 301 295 290 254 213 212 217 211 210 211 208 205 201 206 214 214 212
282 277 280 288 295 302 294 274 233 264 219 206 212 210 211 210 208 207 208 212 213 214
290 285 283 287 287 290 304 286 264 286 202 207 211 212 210 212 211 206 213 213 211 212
285 290 292 287 281 285 295 299 271 253 208 215 212 212 211 211 211 210 207 212 213 214
287 280 268 273 283 281 289 296 284 244 219 208 210 210 216 213 212 210 211 215 214 213
290 282 271 272 272 279 284 288 285 238 221 208 208 211 216 218 215 211 212 216 215 214
290 284 282 266 270 270 277 278 280 235 220 208 213 212 212 213 222 217 214 217 216 214
292 286 282 258 263 264 272 271 277 236 215 206 212 209 208 214 219 225 219 221 220 218
296 286 279 260 258 265 273 268 280 229 219 209 210 209 211 215 217 223 227 222 222 223
294 287 273 257 263 259 271 268 282 229 224 213 216 209 214 215 218 221 227 224 224 226
298 286 271 257 253 257 261 265 276 233 225 218 225 216 216 218 220 223 223 229 224 221